Location: Bílinka
(49.3579°N, 14.3767°E)
Time: 06:32:29
(UTC+00:00)

PSLV R/B - Pass Details

Date: 24 April 2024
Orbit: 467 x 522 km, 97.7° (Epoch: 19 May)

Event Time Altitude Azimuth Distance (km) Brightness Sun altitude
Rises 18:32:06 0° 155° (SSE) 2,622 6.8 -4.2°
Reaches altitude 10° 18:34:11 10° 151° (SSE) 1,748 5.9 -4.5°
Maximum altitude 18:37:53 58° 73° (ENE) 615 3.9 -5.0°
Drops below altitude 10° 18:41:41 10° 354° (N) 1,784 6.9 -5.6°
Sets 18:43:50 0° 350° (N) 2,682 7.9 -5.9°
